[[{"header":{"parameterUnit":"m.s-1","parameterCategory":1,"la1":30.2992,"la2":30.254,"lo1":-89.0895,"lo2":-89.0443,"dy":0.0025,"dx":0.0025,"nx":19,"ny":19,"refTime":"2026-04-23T09:00:00:Z","depth":0,"parameterNumber":2,"parameterNumberName":"U-component_of_WINDS"},"data":[0,0,0,-1.6472,-1.6473,-1.6559,-1.6559,-1.6661,-1.6662,0,0,0,0,0,0,0,0,0,0,0,-1.6442,-1.6442,-1.6472,-1.6474,-1.6559,-1.656,-1.6661,-1.6662,0,0,0,0,0,0,0,0,0,0,0,-1.6441,-1.6442,-1.6443,-1.6474,-1.6559,-1.656,-1.666,-1.6599,0,0,0,0,0,0,0,0,0,0,-1.6517,-1.6485,-1.6442,-1.6443,-1.6474,-1.6559,-1.656,-1.6596,-1.6602,-1.6618,0,-1.6632,0,-1.6648,-1.6668,-1.6668,0,0,0,-1.6477,-1.6479,-1.6506,-1.6443,-1.6475,-1.6559,-1.6522,-1.66,-1.6607,-1.6627,-1.6633,-1.6637,-1.665,-1.6668,-1.6669,-1.675,-1.675,0,0,-1.6472,-1.6455,-1.6501,-1.6511,-1.6498,-1.6519,-1.6524,-1.6604,-1.661,-1.6634,-1.664,-1.6652,-1.6669,-1.667,-1.675,-1.675,0,0,0,-1.6456,-1.6451,-1.6477,-1.6507,-1.6523,-1.6521,-1.6527,-1.6606,-1.6616,-1.6641,-1.6653,-1.667,-1.6671,-1.6749,-1.675,-1.6743,0,0,0,-1.6454,-1.6442,-1.6474,-1.6464,-1.6521,-1.6565,-1.6527,-1.661,-1.662,-1.6652,-1.667,-1.6672,-1.6749,-1.675,-1.6742,-1.6742,0,0,0,-1.6438,-1.644,-1.6451,-1.6463,-1.6499,-1.6565,-1.6579,-1.6613,-1.6627,-1.6668,-1.6672,-1.6749,-1.675,-1.6742,-1.6742,-1.6758,0,0,0,-1.6415,-1.6444,-1.645,-1.6486,-1.6499,-1.656,-1.6579,-1.6626,-1.666,-1.667,-1.6749,-1.675,-1.6742,-1.6742,-1.6757,-1.6767,-1.677,0,0,-1.6441,-1.6446,-1.6469,-1.6477,-1.6533,-1.6548,-1.6603,-1.6651,-1.6672,-1.6722,-1.6725,-1.6742,-1.6742,-1.6758,-1.6793,-1.6795,0,0,0,-1.6471,-1.6486,-1.6505,-1.6537,-1.6575,-1.6607,-1.665,-1.6668,-1.6712,-1.6694,-1.6754,-1.6754,-1.6764,-1.6769,-1.6771,-1.678,-1.6752,-1.6752,-1.6752,-1.6481,-1.6505,-1.6544,-1.6579,-1.661,-1.6653,-1.668,-1.6711,-1.6727,-1.6741,-1.6756,-1.6774,-1.678,-1.6781,-1.6791,-1.6764,-1.6764,-1.6764,-1.6764,-1.652,-1.6546,-1.6566,-1.6611,-1.6636,-1.6674,-1.6717,-1.6727,-1.6766,-1.6765,-1.6775,-1.6771,-1.6783,-1.6792,-1.6763,-1.6763,-1.6764,-1.6764,-1.6764,-1.6528,-1.6545,-1.6567,-1.6615,-1.665,-1.6685,-1.6721,-1.6743,-1.6764,-1.6774,-1.6792,-1.6792,-1.6794,-1.6781,-1.6781,-1.6781,-1.6781,-1.6781,-1.6781,-1.6529,-1.6553,-1.6581,-1.6624,-1.6647,-1.668,-1.6724,-1.6747,-1.6779,-1.6792,-1.6793,-1.6806,-1.678,-1.6772,-1.6783,-1.6782,-1.6782,-1.6782,-1.6782,-1.6558,-1.6555,-1.6598,-1.6621,-1.6673,-1.6705,-1.6733,-1.6779,-1.6802,-1.6819,-1.6831,-1.6808,-1.6814,-1.6813,-1.6807,-1.6826,-1.6826,-1.6826,-1.6826,-1.6565,-1.6571,-1.6619,-1.6655,-1.6693,-1.6722,-1.6769,-1.6803,-1.6838,-1.6853,-1.6854,-1.6848,-1.6846,-1.6854,-1.6852,-1.6846,-1.6875,-1.6875,-1.6875,-1.6584,-1.6595,-1.6631,-1.6664,-1.6706,-1.6741,-1.6786,-1.6826,-1.6865,-1.6877,-1.6866,-1.6864,-1.6854,-1.685,-1.6861,-1.6858,-1.6848,0,0]},{"header":{"parameterUnit":"m.s-1","parameterCategory":1,"la1":30.2992,"la2":30.254,"lo1":-89.0895,"lo2":-89.0443,"dy":0.0025,"dx":0.0025,"nx":19,"ny":19,"refTime":"2026-04-23T09:00:00:Z","depth":0,"parameterNumber":3,"parameterNumberName":"V-component_of_WINDS"},"data":[0,0,0,4.2739,4.2742,4.2859,4.286,4.3007,4.3008,0,0,0,0,0,0,0,0,0,0,0,4.2704,4.2705,4.2739,4.2742,4.2859,4.286,4.3007,4.3008,0,0,0,0,0,0,0,0,0,0,0,4.2703,4.2704,4.2706,4.2743,4.2859,4.286,4.3006,4.2918,0,0,0,0,0,0,0,0,0,0,4.2805,4.2771,4.2704,4.2706,4.2743,4.2859,4.286,4.2914,4.2924,4.2953,0,4.2979,0,4.2996,4.3018,4.3018,0,0,0,4.2742,4.2763,4.2796,4.2706,4.2744,4.2859,4.2806,4.292,4.2931,4.2965,4.2981,4.2987,4.2999,4.3019,4.302,4.3189,4.3189,0,0,4.2736,4.2724,4.2789,4.2803,4.2786,4.2803,4.281,4.2926,4.2942,4.2982,4.299,4.3001,4.302,4.3021,4.3188,4.3189,0,0,0,4.2717,4.2719,4.2749,4.2797,4.2819,4.2806,4.2815,4.2937,4.2948,4.2992,4.3003,4.3021,4.3022,4.3187,4.3188,4.3216,0,0,0,4.2713,4.2708,4.2746,4.274,4.2816,4.2879,4.2822,4.294,4.2953,4.3002,4.3021,4.3024,4.3186,4.3188,4.3214,4.3231,0,0,0,4.2696,4.2706,4.2723,4.2739,4.279,4.2878,4.2895,4.2943,4.296,4.3018,4.3024,4.3186,4.3187,4.3211,4.3227,4.3273,0,0,0,4.2674,4.2745,4.2724,4.2807,4.2789,4.2895,4.2895,4.2974,4.3027,4.3021,4.3186,4.3188,4.3211,4.3225,4.327,4.3309,4.3324,0,0,4.2757,4.2754,4.2805,4.2789,4.2896,4.2878,4.2989,4.3048,4.3064,4.3146,4.315,4.3215,4.3227,4.3272,4.3413,4.3425,0,0,0,4.2827,4.2862,4.2893,4.2945,4.2994,4.3037,4.3081,4.3103,4.3174,4.3104,4.3244,4.3251,4.3278,4.3297,4.3308,4.3332,4.3197,4.3196,4.3196,4.2925,4.2943,4.3028,4.306,4.311,4.3157,4.3199,4.3237,4.3238,4.3271,4.3295,4.3379,4.3401,4.3408,4.3433,4.3318,4.3318,4.3318,4.3318,4.3047,4.3101,4.3105,4.3188,4.3207,4.3276,4.3324,4.3323,4.339,4.3362,4.3386,4.3353,4.3421,4.3444,4.332,4.332,4.3319,4.3319,4.3319,4.3113,4.3142,4.317,4.3248,4.3306,4.3337,4.3402,4.3416,4.343,4.3454,4.3482,4.3482,4.3483,4.3467,4.3467,4.3468,4.3468,4.3468,4.3468,4.3171,4.3201,4.3255,4.3315,4.3351,4.34,4.3449,4.3484,4.3527,4.3532,4.3533,4.3532,4.3425,4.3397,4.3473,4.3472,4.3471,4.3471,4.3471,4.3287,4.3264,4.3347,4.3383,4.3455,4.3512,4.3531,4.3603,4.3634,4.3666,4.3661,4.358,4.3578,4.357,4.3547,4.3657,4.3657,4.3657,4.3657,4.3343,4.3344,4.3433,4.3491,4.3549,4.3575,4.3669,4.3708,4.3744,4.3765,4.3752,4.3724,4.3715,4.3718,4.3707,4.3686,4.3828,4.3829,4.3829,4.3415,4.3423,4.35,4.3537,4.3595,4.3644,4.3733,4.3799,4.3836,4.3836,4.3782,4.3775,4.3729,4.3714,4.3711,4.3693,4.3655,0,0]}]]